Погода Карпогоры

Погода Карпогоры : погода сейчас, прогноз погоды и архив. Всё, что Вы хотите узнать о погоде Карпогоры!

Хотите узнать прогноз погоды Карпогоры? Тогда Вам сюда: Погода Карпогоры

Поиск расширенной информации на нашем сайте:

Другие новости

Новости СМИ2

Главная страница сайта

Новости сайта

03.07.2017

Напоминаем, что на нашем специализированном сайте Метеоцентр.Азия вы можете получить высокодетализированные автоматические прогнозы погоды по пунктам России, СНГ и мира в авиационном формате (включающие направление и скорость ветра, видимость, явления погоды, количество и форму облачности, нижнюю и верхнюю границу облачности).

Рекомендуем: Самая актуальная информация картридж ml на нашем сайте.

Погода Карпогоры - сегодня

Время (UTC), дата Ветер
(°,м/с) 
Видим.   Явления Облачность Т
(°С)
Тd
(°С)
f(%) Тe
(°С)
Pmin
(гПа)
dP
(гПа)
Po
(мм)
O2
(г/м3)
Тmin Tmax R s Состояние
почвы
15 14.10.17 050 (СВ) 20000 м    10/10 660 м 
[Sc]
+5.6 +3.4 86 +6  1011.2  753  297    +7.1       
18 14.10.17 070 (В) 20000 м    8/0 средняя 
[Ac trans]
+4.2 +2.5 89 +4  1010.3  -0.9  752  298           
21 14.10.17 110 (В) 20000 м    10/10 600 м 
[Sc]
+4.6 +2.8 88 +4  1008.9  -1.4  751  297           
00 15.10.17 090 (В) 20000 м    10/0 средняя 
[Ac As]
+4.5 +2.9 89 +4  1007.4  -1.5  750  297           
03 15.10.17 100 (В) 20000 м    10/10 400 м 
[St]
+4.2 +2.7 90 +4  1006.2  -1.3  749  297  +3.3         
06 15.10.17 090 (В) 10 км  слаб. ливневой дождь  10/8 240 м кучево-дожд., средняя 
[Cb cap|Ac As]
+3.7 +3.2 97 +2  1005.4  -0.8  748  297           
09 15.10.17 100 (В) 10 км  слаб. ливневой дождь  10/8 330 м кучево-дожд., средняя 
[Cb cap|Ac As]
+4 +3.3 95 +4  1005.2  -0.2  748  297           
12 15.10.17 070 (В) 20000 м  {ливн. осадки}  10/8 360 м кучево-дожд., средняя 
[Cb cap|Ac As]
+4.6 +3.7 94 +4  1005.2  748  296           
15 15.10.17 040 (СВ) 10 км  слаб. ливневой дождь  10/6 600 м кучево-дожд., средняя 
[Cb cap|Ac As]
+4.2 +3.8 97 +4  1005.7  0.5  749  296    +4.7     
18 15.10.17 040 (СВ) 10 км  слаб. ливневой дождь  10/8 420 м кучево-дожд., средняя 
[Cb cap|Ac As]
+4.3 +4 98 +4  1006.3  0.6  749  296           
21 15.10.17 040 (СВ) 10 км  слаб. ливневой дождь  10/10 210 м кучево-дожд. 
[Cb cap]
+4.6 +4.4 99 +4  1006.7  0.3  749  296           
00 16.10.17 040 (СВ) 10 км  {ливн. осадки}  10/10 240 м кучево-дожд. 
[Cb cap]
+4.9 +4.7 99 +5  1007.5  0.8  750  296           
03 16.10.17 040 (СВ) 20000 м    10/10 420 м 
[Sc]
+5.1 +5 99 +6  1007.8  0.3  750  296  +4.1       
06 16.10.17 080 (В) 4000 м  дымка  10/10 240 м 
[St]
+5.6 +5.3 98 +6  1008.1  0.4  750  295           
09 16.10.17 150 (ЮВ) 4000 м  дымка{морось}  10/10 240 м 
[St]
+6.5 +6.1 97 +7  1008  -0.1  750  294           
12 16.10.17 150 (ЮВ) 1000 м  слаб. морось  10/10 180 м 
[St]
+6.4 +6.2 99 +6  1006.9  -1.1  749  294           
15 16.10.17 170 (Ю) 1000 м  слаб. морось{дождь}  10/10 150 м 
[St]
+6.7 +6.6 99 +8  1006.1  -0.8  749  293    +6.7  0.9     
18 16.10.17 210 (ЮЗ) 4000 м  дымка{дождь, морось}  10/10 300 м 
[St]
+6.4 +6 97 +5  1003.6  -2.5  747  293           
21 16.10.17 170 (Ю) 10 км    10/10 660 м 
[Sc]
+5.6 +4.3 91 +5  1000.2  -3.4  744  293           
00 17.10.17 180 (Ю) 10 км  слаб. дождь  10/10 400 м 
[Ns]
+5.3 +4.6 95 +4  995  -5.1  741  292           
03 17.10.17 190 (Ю) 4{12}  10 км  слаб. дождь  10/10 660 м 
[Ns]
+4 +3.1 94 +2  991.5  -3.6  738  292  +4       
06 17.10.17 200 (Ю) 3{10}  10 км  слаб. дождь  10/10 270 м 
[Frnb|Ns]
+2.6 +2 96 +1  989.9  -1.5  737  294  +2.5         
09 17.10.17 200 (Ю) 10 км  слаб. дождь  10/10 240 м 
[Frnb|Ns]
+4.2 +3.8 97 +3  989.2  -0.7  736  292           
12 17.10.17 210 (ЮЗ) 10 км  слаб. ливневой дождь  10/10 500 м кучево-дожд. 
[Cb cap]
+5.2 +4.3 94 +5  988.8  -0.4  736  290           
15 17.10.17 250 (З) 10 км  слаб. ливневой дождь  10/10 450 м кучево-дожд. 
[Cb cap]
+3 +2.3 95 +4  989.4  0.5  736  293    +5.3     
Время (UTC), дата Ветер
(°,м/с) 
Видим.   Явления Облачность Т
(°С)
Тd
(°С)
f(%) Тe
(°С)
Pmin
(гПа)
dP
(гПа)
Po
(мм)
O2
(г/м3)
Тmin Tmax R s Состояние
почвы

Для получения пояснительной информации подведите курсор к названию столбца.

ПОГОДА Карпогоры - архив

Всё, что Вы хотите узнать о погоде Карпогоры - удобно и подробно!

Выберите нужную дату (начиная с 1 января 2015* года) и нажмите кнопку "Найти".
Будут отображены архивные сводки погоды по пункту Карпогоры, начиная с указанной даты.


Отображать данные в формате CSV (для использования в таблицах Excel)


Внимание! Наш архив погоды предназначен исключительно для личного некоммерческого использования в познавательных целях. Если Вам необходимы официальные справки о состоянии погоды (для производственных, юридических, коммерческих и т.п. целей), обращайтесь в органы Росгидромета.

*Примечание: данная дата относится к архиву по метеостанциям СССР (Россия, СНГ, Балтия).
Архив по метеостанциям Зарубежной Европы и Азии (кроме Китая) хранится 10 дней, по другим регионам земного шара (Китай, Африка, Америка, Австралия, Океания) - 1 день.

Карпогоры - район местоположения метеостанции


Название, широта, долгота, высота метеостанции:
Карпогоры 64°ш. 44.4°д. 60 м над ур. моря [Российская Федерация]

Дополнительная информация

В oтличие oт бoльшинства пoгoдных сайтoв мы публикуем пoдрoбную метеoинфoрмацию в детальнoм прoфессиoнальнoм фoрмате.

Характеристики температуры и влажнoсти вoздуха измеряются на высoте 2 м в тени вдали oт зданий и деревьев.
Скoрoсть ветра измеряется на высoте 10 м (на урoвне рoста челoвека скoрoсть ветра ниже в 1.5-2 раза). Если метеoстанция нахoдится в гoрoде или в лесу, тo скoрoсть ветра занижена на 2-4 м/с пo сравнению с oткрытым местoм. Скoрoсть ветра над акватoриями крупных рек и oзёр, а также на вершинах хoлмoв на 2-5 м/с выше, чем в oбычных услoвиях.
Атмoсфернoе давление в разных тoчках местнoсти мoжет значительнo oтличаться oт давления на метеoстанции, в зависимoсти oт услoвий рельефа (при пoдъёме на 10 м давление пoнижается примернo на 1 мм рт.ст.).